Location: Holiday Acres Laynes 2 Mobile Home Park
(26.7249°N, 81.8671°W)
Time: 13:09:55
(UTC+00:00)

Cosmos 2298 Rocket - Pass Details

Date: 25 November 2020
Orbit: 775 x 784 km, 74.0° (Epoch: 23 January)

Event Time Altitude Azimuth Distance (km) Brightness Sun altitude
Rises 23:04:28 0° 342° (NNW) 3,259 7.2 -7.1°
Reaches altitude 10° 23:06:51 10° 341° (NNW) 2,330 6.5 -7.6°
Maximum altitude 23:12:08 75° 257° (WSW) 809 4.3 -8.7°
Drops below altitude 10° 23:17:24 10° 172° (S) 2,326 6.6 -9.8°
Sets 23:19:47 0° 170° (S) 3,252 7.4 -10.3°
